TAM3823 SBCH-SBGR

Flight info

Callsign TAM3823
Flight time 1h 15m
Altitude 37000
Route DCT IMBIM UM400 SAVLU UZ121 BUXUK DCT
Aircraft A320/M-SDE3FGHIRWY/LB1

Departure

Time 2026-04-24 20:27
Airport Serafin Enoss Bertaso Airport (SBCH)

Arrival

Time 2026-04-24 21:42
Airport São Paulo/Guarulhos–Governor André Franco Montoro International Airport (SBGR)
Time Latitude Longitude Altitude Speed Heading
2026-04-24 20:26 -27.16019 -52.48084 6027 ft 298 kts 98°
2026-04-24 20:27 -27.16372 -52.45790 6899 ft 300 kts 98°
2026-04-24 20:27 -27.16714 -52.43463 7759 ft 304 kts 98°
2026-04-24 20:27 -27.17054 -52.41102 8608 ft 308 kts 99°
2026-04-24 20:27 -27.17400 -52.38709 9477 ft 312 kts 99°
2026-04-24 20:28 -27.17753 -52.36286 10260 ft 320 kts 99°
2026-04-24 20:28 -27.18126 -52.33734 10559 ft 343 kts 99°
2026-04-24 20:28 -27.18524 -52.31021 11021 ft 357 kts 99°
2026-04-24 20:28 -27.18932 -52.28237 11728 ft 365 kts 99°
2026-04-24 20:29 -27.19340 -52.25415 12474 ft 369 kts 99°
2026-04-24 20:29 -27.19756 -52.22559 13234 ft 373 kts 100°
2026-04-24 20:29 -27.20179 -52.19662 13934 ft 378 kts 100°
2026-04-24 20:29 -27.20610 -52.16731 14560 ft 383 kts 100°
2026-04-24 20:30 -27.21047 -52.13766 15178 ft 387 kts 99°
2026-04-24 20:30 -27.21482 -52.10763 15777 ft 392 kts 99°
2026-04-24 20:30 -27.21903 -52.07722 16393 ft 396 kts 97°
2026-04-24 20:30 -27.21955 -52.04617 16983 ft 401 kts 84°
2026-04-24 20:31 -27.21450 -52.01537 17578 ft 403 kts 72°
2026-04-24 20:31 -27.20436 -51.98600 18189 ft 405 kts 64°
2026-04-24 20:31 -27.19297 -51.95692 18722 ft 409 kts 64°
2026-04-24 20:31 -27.18146 -51.92751 19196 ft 413 kts 64°
2026-04-24 20:32 -27.16985 -51.89776 19650 ft 418 kts 64°
2026-04-24 20:32 -27.15815 -51.86765 20110 ft 423 kts 64°
2026-04-24 20:32 -27.14652 -51.83764 20561 ft 428 kts 63°
2026-04-24 20:32 -27.13457 -51.80683 21019 ft 432 kts 64°
2026-04-24 20:33 -27.12250 -51.77583 21475 ft 436 kts 64°
2026-04-24 20:33 -27.11025 -51.74456 21940 ft 440 kts 63°
2026-04-24 20:33 -27.09791 -51.71294 22348 ft 445 kts 63°
2026-04-24 20:33 -27.08544 -51.68095 22760 ft 449 kts 63°
2026-04-24 20:34 -27.07288 -51.64870 23188 ft 453 kts 63°
2026-04-24 20:34 -27.06017 -51.61613 23591 ft 457 kts 63°
2026-04-24 20:34 -27.04734 -51.58334 23914 ft 461 kts 63°
2026-04-24 20:34 -27.03439 -51.55032 24266 ft 464 kts 63°
2026-04-24 20:35 -27.02134 -51.51711 24620 ft 466 kts 63°
2026-04-24 20:35 -27.00821 -51.48374 24960 ft 469 kts 63°
2026-04-24 20:35 -26.99501 -51.45017 25315 ft 472 kts 63°
2026-04-24 20:35 -26.98173 -51.41637 25676 ft 475 kts 63°
2026-04-24 20:36 -26.96840 -51.38247 26009 ft 477 kts 63°
2026-04-24 20:36 -26.95494 -51.34831 26347 ft 480 kts 63°
2026-04-24 20:36 -26.94142 -51.31402 26693 ft 483 kts 63°
2026-04-24 20:36 -26.92783 -51.27951 27045 ft 484 kts 63°
2026-04-24 20:37 -26.91422 -51.24490 27355 ft 487 kts 63°
2026-04-24 20:37 -26.90048 -51.21006 27672 ft 490 kts 63°
2026-04-24 20:37 -26.88666 -51.17505 27994 ft 493 kts 63°
2026-04-24 20:37 -26.87273 -51.13980 28301 ft 496 kts 63°
2026-04-24 20:38 -26.85871 -51.10443 28624 ft 499 kts 63°
2026-04-24 20:38 -26.84477 -51.06934 28965 ft 501 kts 63°
2026-04-24 20:38 -26.83056 -51.03358 29279 ft 504 kts 63°
2026-04-24 20:38 -26.81627 -50.99768 29566 ft 507 kts 63°
2026-04-24 20:39 -26.80187 -50.96153 29876 ft 510 kts 63°
2026-04-24 20:39 -26.78739 -50.92519 30167 ft 512 kts 63°
2026-04-24 20:39 -26.77282 -50.88868 30438 ft 515 kts 63°
2026-04-24 20:39 -26.75821 -50.85204 30715 ft 516 kts 63°
2026-04-24 20:40 -26.74356 -50.81534 30997 ft 517 kts 63°
2026-04-24 20:40 -26.72891 -50.77856 31271 ft 519 kts 63°
2026-04-24 20:40 -26.71418 -50.74161 31534 ft 521 kts 63°
2026-04-24 20:40 -26.69941 -50.70470 31883 ft 520 kts 63°
2026-04-24 20:41 -26.68462 -50.66784 32294 ft 518 kts 62°
2026-04-24 20:41 -26.66991 -50.63121 32692 ft 517 kts 62°
2026-04-24 20:41 -26.65520 -50.59461 33076 ft 516 kts 62°
2026-04-24 20:41 -26.64047 -50.55808 33458 ft 515 kts 62°
2026-04-24 20:42 -26.62580 -50.52164 33857 ft 514 kts 62°
2026-04-24 20:42 -26.61129 -50.48520 34215 ft 513 kts 62°
2026-04-24 20:42 -26.59691 -50.44877 34542 ft 512 kts 63°
2026-04-24 20:42 -26.58262 -50.41235 34849 ft 512 kts 63°
2026-04-24 20:43 -26.56833 -50.37591 35138 ft 512 kts 63°
2026-04-24 20:43 -26.55399 -50.33951 35415 ft 512 kts 63°
2026-04-24 20:43 -26.53942 -50.30322 35671 ft 512 kts 62°
2026-04-24 20:43 -26.52467 -50.26704 35933 ft 512 kts 62°
2026-04-24 20:44 -26.50987 -50.23097 36195 ft 511 kts 62°
2026-04-24 20:44 -26.49508 -50.19486 36464 ft 511 kts 62°
2026-04-24 20:44 -26.48038 -50.15881 36695 ft 510 kts 62°
2026-04-24 20:44 -26.46570 -50.12275 36938 ft 510 kts 63°
2026-04-24 20:45 -26.45106 -50.08668 37180 ft 510 kts 63°
2026-04-24 20:45 -26.43663 -50.05111 37422 ft 510 kts 63°
2026-04-24 20:45 -26.42200 -50.01508 37665 ft 509 kts 63°
2026-04-24 20:45 -26.40735 -49.97911 37898 ft 509 kts 63°
2026-04-24 20:46 -26.39270 -49.94320 38121 ft 509 kts 63°
2026-04-24 20:46 -26.37806 -49.90730 38362 ft 509 kts 63°
2026-04-24 20:46 -26.36337 -49.87141 38584 ft 508 kts 63°
2026-04-24 20:46 -26.34868 -49.83553 38775 ft 508 kts 63°
2026-04-24 20:47 -26.33404 -49.79974 38964 ft 508 kts 63°
2026-04-24 20:47 -26.31939 -49.76384 39059 ft 508 kts 63°
2026-04-24 20:47 -26.29024 -49.69211 39074 ft 508 kts 63°
2026-04-24 20:48 -26.26115 -49.62047 39071 ft 507 kts 63°
2026-04-24 20:48 -26.23199 -49.54893 39070 ft 507 kts 63°
2026-04-24 20:49 -26.20264 -49.47740 39071 ft 508 kts 63°
2026-04-24 20:49 -26.17316 -49.40598 39077 ft 508 kts 63°
2026-04-24 20:50 -26.14356 -49.33459 39084 ft 508 kts 63°
2026-04-24 20:50 -26.12712 -49.29996 39085 ft 504 kts 52°
2026-04-24 20:50 -26.10564 -49.26958 39066 ft 497 kts 41°
2026-04-24 20:51 -26.05226 -49.22290 39067 ft 483 kts 24°
2026-04-24 20:51 -25.99459 -49.18439 39068 ft 484 kts 25°
2026-04-24 20:52 -25.93729 -49.14586 39073 ft 485 kts 25°
2026-04-24 20:52 -25.87955 -49.10715 39077 ft 485 kts 24°
2026-04-24 20:53 -25.82175 -49.06859 39074 ft 485 kts 25°
2026-04-24 20:53 -25.76391 -49.03012 39077 ft 485 kts 25°
2026-04-24 20:54 -25.70601 -48.99172 39095 ft 485 kts 25°
2026-04-24 20:54 -25.64807 -48.95332 39106 ft 485 kts 25°
2026-04-24 20:55 -25.59009 -48.91491 39111 ft 486 kts 25°
2026-04-24 20:55 -25.53214 -48.87650 39106 ft 486 kts 25°
2026-04-24 20:56 -25.47411 -48.83811 39083 ft 486 kts 25°
2026-04-24 20:56 -25.41549 -48.80123 39081 ft 484 kts 23°
2026-04-24 20:57 -25.35629 -48.76588 39086 ft 483 kts 22°
2026-04-24 20:57 -25.29713 -48.73055 39082 ft 483 kts 22°
2026-04-24 20:58 -25.23816 -48.69485 39082 ft 483 kts 23°
2026-04-24 20:58 -25.17922 -48.65916 39073 ft 483 kts 23°
2026-04-24 20:59 -25.12029 -48.62364 39073 ft 482 kts 23°
2026-04-24 20:59 -25.06137 -48.58827 39078 ft 482 kts 23°
2026-04-24 21:00 -25.00244 -48.55291 39079 ft 482 kts 23°
2026-04-24 21:00 -24.94354 -48.51742 39086 ft 482 kts 24°
2026-04-24 21:01 -24.88475 -48.48179 39074 ft 482 kts 24°
2026-04-24 21:01 -24.82641 -48.44647 39081 ft 482 kts 24°
2026-04-24 21:02 -24.76772 -48.41106 39082 ft 481 kts 24°
2026-04-24 21:02 -24.70908 -48.37577 39080 ft 480 kts 24°
2026-04-24 21:03 -24.65004 -48.34029 39079 ft 480 kts 24°
2026-04-24 21:03 -24.59186 -48.30527 39070 ft 479 kts 24°
2026-04-24 21:04 -24.53336 -48.27013 39072 ft 479 kts 23°
2026-04-24 21:04 -24.48432 -48.24067 39076 ft 479 kts 24°
2026-04-24 21:05 -24.41628 -48.19986 39073 ft 479 kts 24°
2026-04-24 21:05 -24.35784 -48.16488 39023 ft 479 kts 24°
2026-04-24 21:06 -24.32851 -48.14738 38794 ft 479 kts 24°
2026-04-24 21:06 -24.29915 -48.12997 38534 ft 480 kts 23°
2026-04-24 21:06 -24.26974 -48.11266 38258 ft 480 kts 23°
2026-04-24 21:06 -24.24030 -48.09538 37997 ft 480 kts 23°
2026-04-24 21:07 -24.21080 -48.07809 37733 ft 481 kts 23°
2026-04-24 21:07 -24.18135 -48.06081 37475 ft 481 kts 24°
2026-04-24 21:07 -24.15186 -48.04347 36847 ft 482 kts 24°
2026-04-24 21:07 -24.12230 -48.02608 36274 ft 480 kts 24°
2026-04-24 21:08 -24.09301 -48.00882 35753 ft 477 kts 24°
2026-04-24 21:08 -24.06383 -47.99161 35198 ft 475 kts 24°
2026-04-24 21:08 -24.03479 -47.97449 34652 ft 474 kts 24°
2026-04-24 21:08 -24.00579 -47.95742 34088 ft 472 kts 24°
2026-04-24 21:09 -23.97696 -47.94047 33499 ft 470 kts 24°
2026-04-24 21:09 -23.94825 -47.92366 32961 ft 466 kts 24°
2026-04-24 21:09 -23.91975 -47.90699 32412 ft 463 kts 24°
2026-04-24 21:09 -23.89139 -47.89041 31882 ft 461 kts 24°
2026-04-24 21:10 -23.86325 -47.87396 31366 ft 458 kts 24°
2026-04-24 21:10 -23.83525 -47.85761 30841 ft 455 kts 24°
2026-04-24 21:10 -23.80740 -47.84137 30337 ft 452 kts 24°
2026-04-24 21:10 -23.77986 -47.82515 29791 ft 450 kts 26°
2026-04-24 21:11 -23.75434 -47.80546 29310 ft 449 kts 38°
2026-04-24 21:11 -23.73178 -47.78215 28827 ft 445 kts 41°
2026-04-24 21:11 -23.70967 -47.75873 28353 ft 440 kts 41°
2026-04-24 21:11 -23.68782 -47.73561 27892 ft 435 kts 41°
2026-04-24 21:12 -23.66621 -47.71280 27420 ft 431 kts 41°
2026-04-24 21:12 -23.65198 -47.69783 27115 ft 428 kts 41°
2026-04-24 21:12 -23.62361 -47.66801 26663 ft 418 kts 41°
2026-04-24 21:12 -23.60291 -47.64623 26355 ft 410 kts 41°
2026-04-24 21:13 -23.58254 -47.62484 26056 ft 404 kts 41°
2026-04-24 21:13 -23.56915 -47.61081 25852 ft 402 kts 41°
2026-04-24 21:13 -23.54910 -47.58981 25553 ft 399 kts 41°
2026-04-24 21:13 -23.52914 -47.56889 25256 ft 396 kts 41°
2026-04-24 21:14 -23.50933 -47.54814 24962 ft 394 kts 41°
2026-04-24 21:14 -23.48962 -47.52751 24655 ft 392 kts 41°
2026-04-24 21:14 -23.47002 -47.50696 24370 ft 390 kts 41°
2026-04-24 21:14 -23.45054 -47.48651 24075 ft 388 kts 41°
2026-04-24 21:15 -23.43118 -47.46620 23786 ft 386 kts 41°
2026-04-24 21:15 -23.41190 -47.44601 23472 ft 383 kts 41°
2026-04-24 21:15 -23.39272 -47.42596 23176 ft 381 kts 41°
2026-04-24 21:15 -23.37363 -47.40600 22912 ft 379 kts 41°
2026-04-24 21:16 -23.35465 -47.38617 22677 ft 378 kts 41°
2026-04-24 21:16 -23.33579 -47.36645 22441 ft 375 kts 41°
2026-04-24 21:16 -23.31698 -47.34680 22211 ft 374 kts 41°
2026-04-24 21:16 -23.29832 -47.32728 21975 ft 372 kts 41°
2026-04-24 21:17 -23.27971 -47.30784 21742 ft 370 kts 41°
2026-04-24 21:17 -23.26118 -47.28852 21512 ft 368 kts 41°
2026-04-24 21:17 -23.24272 -47.26930 21278 ft 366 kts 41°
2026-04-24 21:17 -23.22437 -47.25020 21051 ft 365 kts 41°
2026-04-24 21:18 -23.20610 -47.23116 20824 ft 363 kts 41°
2026-04-24 21:18 -23.18792 -47.21220 20618 ft 361 kts 41°
2026-04-24 21:18 -23.16983 -47.19333 20389 ft 360 kts 41°
2026-04-24 21:18 -23.15180 -47.17460 20170 ft 358 kts 41°
2026-04-24 21:19 -23.13405 -47.15572 19952 ft 357 kts 43°
2026-04-24 21:19 -23.11720 -47.13647 19730 ft 356 kts 45°
2026-04-24 21:19 -23.10059 -47.11666 19513 ft 354 kts 46°
2026-04-24 21:19 -23.08417 -47.09677 19293 ft 353 kts 46°
2026-04-24 21:20 -23.05129 -47.05725 18510 ft 356 kts 45°
2026-04-24 21:20 -23.03455 -47.03737 17949 ft 358 kts 45°
2026-04-24 21:20 -23.01766 -47.01743 17424 ft 359 kts 45°
2026-04-24 21:21 -23.00068 -46.99749 16912 ft 360 kts 45°
2026-04-24 21:21 -22.98371 -46.97760 16414 ft 359 kts 45°
2026-04-24 21:21 -22.96683 -46.95778 16088 ft 355 kts 45°
2026-04-24 21:21 -22.95015 -46.93819 15667 ft 353 kts 45°
2026-04-24 21:22 -22.93349 -46.91870 15270 ft 351 kts 45°
2026-04-24 21:22 -22.91695 -46.89931 14888 ft 349 kts 45°
2026-04-24 21:22 -22.90052 -46.87997 14510 ft 347 kts 46°
2026-04-24 21:22 -22.88438 -46.86096 14353 ft 338 kts 46°
2026-04-24 21:23 -22.86915 -46.84204 14188 ft 330 kts 53°
2026-04-24 21:23 -22.85754 -46.82085 14064 ft 325 kts 60°
2026-04-24 21:23 -22.84674 -46.79937 14074 ft 324 kts 60°
2026-04-24 21:23 -22.83593 -46.77797 14078 ft 324 kts 60°
2026-04-24 21:24 -22.82511 -46.75658 14076 ft 324 kts 60°
2026-04-24 21:24 -22.81455 -46.73501 14072 ft 324 kts 65°
2026-04-24 21:24 -22.80726 -46.71187 14081 ft 325 kts 72°
2026-04-24 21:24 -22.80086 -46.68833 14082 ft 326 kts 72°
2026-04-24 21:25 -22.79443 -46.66484 14083 ft 326 kts 72°
2026-04-24 21:25 -22.78797 -46.64127 14085 ft 326 kts 73°
2026-04-24 21:25 -22.78380 -46.61717 14087 ft 326 kts 85°
2026-04-24 21:25 -22.78253 -46.59262 14087 ft 327 kts 86°
2026-04-24 21:26 -22.78121 -46.56804 14100 ft 327 kts 86°
2026-04-24 21:26 -22.77985 -46.54353 14098 ft 326 kts 86°
2026-04-24 21:26 -22.77927 -46.51898 14091 ft 326 kts 94°
2026-04-24 21:26 -22.78253 -46.49469 14092 ft 326 kts 99°
2026-04-24 21:27 -22.78634 -46.47044 14098 ft 326 kts 99°
2026-04-24 21:27 -22.79012 -46.44619 14100 ft 326 kts 99°
2026-04-24 21:27 -22.79403 -46.42196 14095 ft 326 kts 103°
2026-04-24 21:27 -22.80126 -46.39869 14104 ft 326 kts 115°
2026-04-24 21:28 -22.81064 -46.37627 14107 ft 327 kts 115°
2026-04-24 21:28 -22.82213 -46.35520 14104 ft 325 kts 133°
2026-04-24 21:28 -22.83971 -46.34025 14102 ft 321 kts 156°
2026-04-24 21:28 -22.86091 -46.33355 14000 ft 319 kts 177°
2026-04-24 21:29 -22.88267 -46.33589 13657 ft 313 kts 200°
2026-04-24 21:29 -22.90189 -46.34619 13381 ft 308 kts 213°
2026-04-24 21:29 -22.92011 -46.35830 13094 ft 307 kts 213°
2026-04-24 21:29 -22.93826 -46.37039 12827 ft 306 kts 213°
2026-04-24 21:30 -22.95639 -46.38242 12559 ft 305 kts 213°
2026-04-24 21:30 -22.97446 -46.39442 12287 ft 304 kts 213°
2026-04-24 21:30 -22.99247 -46.40639 12017 ft 303 kts 213°
2026-04-24 21:30 -23.01045 -46.41834 11744 ft 302 kts 213°
2026-04-24 21:31 -23.02835 -46.43023 11475 ft 301 kts 213°
2026-04-24 21:31 -23.04616 -46.44205 11208 ft 299 kts 213°
2026-04-24 21:31 -23.06391 -46.45381 10940 ft 298 kts 213°
2026-04-24 21:31 -23.08157 -46.46554 10675 ft 297 kts 212°
2026-04-24 21:32 -23.09919 -46.47722 10403 ft 296 kts 212°
2026-04-24 21:32 -23.11676 -46.48886 10150 ft 295 kts 212°
2026-04-24 21:32 -23.13428 -46.50048 9882 ft 294 kts 212°
2026-04-24 21:32 -23.15173 -46.51206 9601 ft 293 kts 212°
2026-04-24 21:33 -23.16886 -46.52344 9337 ft 291 kts 212°
2026-04-24 21:33 -23.18582 -46.53472 9199 ft 280 kts 212°
2026-04-24 21:33 -23.20217 -46.54559 9017 ft 272 kts 212°
2026-04-24 21:33 -23.21811 -46.55632 8862 ft 267 kts 213°
2026-04-24 21:34 -23.23372 -46.56727 8646 ft 267 kts 214°
2026-04-24 21:34 -23.24917 -46.57830 8349 ft 265 kts 214°
2026-04-24 21:34 -23.26458 -46.58932 8030 ft 264 kts 214°
2026-04-24 21:34 -23.27985 -46.60024 7826 ft 263 kts 214°
2026-04-24 21:35 -23.29514 -46.61115 7639 ft 262 kts 214°
2026-04-24 21:35 -23.31037 -46.62200 7456 ft 262 kts 214°
2026-04-24 21:35 -23.32561 -46.63285 7254 ft 261 kts 214°
2026-04-24 21:35 -23.34080 -46.64366 7067 ft 261 kts 214°
2026-04-24 21:36 -23.35614 -46.65459 6879 ft 260 kts 214°
2026-04-24 21:36 -23.37102 -46.66519 6693 ft 259 kts 215°
2026-04-24 21:36 -23.38632 -46.67608 6505 ft 259 kts 214°
2026-04-24 21:36 -23.40136 -46.68675 6313 ft 258 kts 215°
2026-04-24 21:37 -23.41688 -46.69646 6132 ft 258 kts 203°
2026-04-24 21:37 -23.43431 -46.70075 5940 ft 261 kts 183°
2026-04-24 21:37 -23.45262 -46.69728 5723 ft 269 kts 157°
2026-04-24 21:37 -23.46758 -46.68580 5528 ft 260 kts 131°
2026-04-24 21:38 -23.47654 -46.66913 5280 ft 255 kts 107°
2026-04-24 21:38 -23.47840 -46.65023 5044 ft 249 kts 82°
2026-04-24 21:38 -23.47441 -46.63244 4997 ft 236 kts 72°
2026-04-24 21:38 -23.46986 -46.61556 4829 ft 230 kts 72°
2026-04-24 21:39 -23.46537 -46.59888 4553 ft 229 kts 72°
2026-04-24 21:39 -23.46099 -46.58257 4276 ft 217 kts 73°
2026-04-24 21:39 -23.45693 -46.56744 4045 ft 197 kts 73°
2026-04-24 21:39 -23.45321 -46.55402 3898 ft 180 kts 72°
2026-04-24 21:40 -23.44979 -46.54157 3690 ft 166 kts 75°
2026-04-24 21:40 -23.44679 -46.52971 3389 ft 159 kts 75°
2026-04-24 21:40 -23.44375 -46.51834 3136 ft 154 kts 75°
2026-04-24 21:40 -23.44071 -46.50724 2939 ft 152 kts 75°
2026-04-24 21:41 -23.43779 -46.49620 2721 ft 150 kts 75°
2026-04-24 21:41 -23.43481 -46.48533 2557 ft 149 kts 74°
2026-04-24 21:41 -23.43185 -46.47460 2470 ft 140 kts 75°
2026-04-24 21:41 -23.42965 -46.46625 2472 ft 89 kts 73°
2026-04-24 21:42 -23.42830 -46.46117 2470 ft 57 kts 74°
2026-04-24 21:42 -23.42734 -46.45768 2474 ft 32 kts 72°
2026-04-24 21:42 -23.42643 -46.45611 2470 ft 25 kts 51°
2026-04-24 21:42 -23.42518 -46.45478 2474 ft 16 kts 41°
2026-04-24 21:43 -23.42484 -46.45485 2473 ft 3 kts 250°
2026-04-24 21:43 -23.42497 -46.45528 2470 ft 10 kts 254°
2026-04-24 21:43 -23.42524 -46.45635 2472 ft 19 kts 253°
2026-04-24 21:43 -23.42565 -46.45785 2474 ft 22 kts 252°
2026-04-24 21:44 -23.42612 -46.45949 2471 ft 24 kts 252°
2026-04-24 21:44 -23.42658 -46.46128 2469 ft 25 kts 253°
2026-04-24 21:44 -23.42708 -46.46319 2475 ft 27 kts 255°
2026-04-24 21:44 -23.42763 -46.46520 2469 ft 28 kts 254°
2026-04-24 21:45 -23.42824 -46.46730 2473 ft 30 kts 252°
2026-04-24 21:45 -23.42875 -46.46933 2469 ft 27 kts 255°
2026-04-24 21:45 -23.42900 -46.47100 2469 ft 10 kts 307°
2026-04-24 21:45 -23.42866 -46.47112 2470 ft 4 kts 343°
2026-04-24 21:46 -23.42821 -46.47127 2470 ft 8 kts 343°
2026-04-24 21:46 -23.42748 -46.47146 2468 ft 11 kts
2026-04-24 21:46 -23.42727 -46.47112 2468 ft 0 kts 52°